Wetterdaten: Woche 19.12.11 - 25.12.11 (KW51)
Datum Zeit Temperatur Luftfeuchte Luftdruck Niederschlag Windrichtung Sonnenschein Solar Wind
19.12.2011 00:00 -1,4 C 94 % 1016,9 hPa 0,0 l/m W-NW 0,00 h 0 W/m 5,5 km/h (1 Bft)
19.12.2011 01:00 -1,9 C 93 % 1017,1 hPa 0,0 l/m W-NW 0,00 h 0 W/m 3,5 km/h (1 Bft)
19.12.2011 02:00 -2,2 C 92 % 1017,2 hPa 0,0 l/m SW 0,00 h 0 W/m 6,9 km/h (2 Bft)
19.12.2011 03:00 -3,1 C 92 % 1017,5 hPa 0,0 l/m N 0,00 h 0 W/m 1,5 km/h (1 Bft)
19.12.2011 04:00 -3,4 C 93 % 1017,6 hPa 0,0 l/m W-NW 0,00 h 0 W/m 1,2 km/h (1 Bft)
19.12.2011 05:00 -3,1 C 94 % 1017,5 hPa 0,0 l/m W-NW 0,00 h 0 W/m 4,3 km/h (1 Bft)
19.12.2011 06:00 -3,8 C 93 % 1017,8 hPa 0,0 l/m N 0,00 h 0 W/m 1,5 km/h (1 Bft)
19.12.2011 07:00 -4,8 C 93 % 1018,1 hPa 0,0 l/m N 0,00 h 0 W/m 0,3 km/h (0 Bft)
19.12.2011 08:00 -5,7 C 93 % 1018,6 hPa 0,0 l/m N 0,00 h 13 W/m 0,7 km/h (0 Bft)
19.12.2011 09:00 -5,0 C 95 % 1019,3 hPa 0,0 l/m N 0,00 h 26 W/m 2,1 km/h (1 Bft)
19.12.2011 10:00 -3,6 C 96 % 1019,8 hPa 0,0 l/m S-SW 0,00 h 39 W/m 3,7 km/h (1 Bft)
19.12.2011 11:00 -2,1 C 96 % 1019,8 hPa 0,0 l/m SW 0,00 h 46 W/m 10,5 km/h (2 Bft)
19.12.2011 12:00 -1,3 C 94 % 1019,6 hPa 0,0 l/m W-SW 0,00 h 39 W/m 9,9 km/h (2 Bft)
19.12.2011 13:00 -0,7 C 91 % 1019,4 hPa 0,0 l/m W 0,33 h 136 W/m 10,7 km/h (2 Bft)
19.12.2011 14:00 -0,8 C 89 % 1019,5 hPa 0,0 l/m W-SW 0,00 h 71 W/m 11,5 km/h (2 Bft)
19.12.2011 15:00 -1,0 C 90 % 1019,8 hPa 0,0 l/m W-SW 0,00 h 39 W/m 10,1 km/h (2 Bft)
19.12.2011 16:00 -1,2 C 91 % 1020,3 hPa 0,0 l/m W-SW 0,00 h 9 W/m 7,8 km/h (2 Bft)
19.12.2011 17:00 -1,3 C 92 % 1020,8 hPa 0,0 l/m W 0,00 h 0 W/m 7,4 km/h (2 Bft)
19.12.2011 18:00 -1,5 C 91 % 1020,9 hPa 0,0 l/m W 0,00 h 0 W/m 8,2 km/h (2 Bft)
19.12.2011 19:00 -2,2 C 91 % 1021,2 hPa 0,0 l/m SW 0,00 h 0 W/m 7,2 km/h (2 Bft)
19.12.2011 20:00 -2,0 C 92 % 1021,0 hPa 0,0 l/m W-SW 0,00 h 0 W/m 11,4 km/h (2 Bft)
19.12.2011 21:00 -2,0 C 91 % 1021,0 hPa 0,0 l/m SW 0,00 h 0 W/m 9,7 km/h (2 Bft)
19.12.2011 22:00 -2,3 C 92 % 1020,6 hPa 0,0 l/m SW 0,00 h 0 W/m 8,7 km/h (2 Bft)
19.12.2011 23:00 -2,4 C 93 % 1020,3 hPa 0,0 l/m SW 0,00 h 0 W/m 5,1 km/h (1 Bft)
20.12.2011 00:00 -2,8 C 92 % 1019,6 hPa 0,0 l/m W-SW 0,00 h 0 W/m 7,0 km/h (2 Bft)
20.12.2011 01:00 -3,0 C 92 % 1018,9 hPa 0,0 l/m W-SW 0,00 h 0 W/m 8,2 km/h (2 Bft)
20.12.2011 02:00 -3,7 C 90 % 1018,1 hPa 0,0 l/m SW 0,00 h 0 W/m 3,5 km/h (1 Bft)
20.12.2011 03:00 -4,5 C 91 % 1017,1 hPa 0,0 l/m S 0,00 h 0 W/m 4,3 km/h (1 Bft)
20.12.2011 04:00 -4,4 C 93 % 1016,1 hPa 0,0 l/m S-SW 0,00 h 0 W/m 8,2 km/h (2 Bft)
20.12.2011 05:00 -3,7 C 92 % 1015,0 hPa 0,0 l/m SW 0,00 h 0 W/m 13,3 km/h (3 Bft)
20.12.2011 06:00 -3,5 C 89 % 1014,2 hPa 0,0 l/m SW 0,00 h 0 W/m 10,7 km/h (2 Bft)
20.12.2011 07:00 -3,3 C 92 % 1013,6 hPa 0,0 l/m SW 0,00 h 0 W/m 13,0 km/h (3 Bft)
20.12.2011 08:00 -3,1 C 94 % 1012,7 hPa 0,2 l/m SW 0,00 h 17 W/m 15,3 km/h (3 Bft)
20.12.2011 09:00 -2,9 C 95 % 1012,0 hPa 0,4 l/m SW 0,00 h 17 W/m 14,2 km/h (3 Bft)
20.12.2011 10:00 -2,7 C 95 % 1011,4 hPa 0,6 l/m S-SW 0,00 h 27 W/m 16,2 km/h (3 Bft)
20.12.2011 11:00 -2,2 C 95 % 1010,8 hPa 0,8 l/m SW 0,00 h 37 W/m 15,8 km/h (3 Bft)
20.12.2011 12:00 -1,5 C 95 % 1010,4 hPa 0,8 l/m SW 0,00 h 34 W/m 12,2 km/h (2 Bft)
20.12.2011 13:00 -0,7 C 95 % 1010,2 hPa 0,4 l/m SW 0,00 h 35 W/m 16,4 km/h (3 Bft)
20.12.2011 14:00 -0,1 C 95 % 1010,4 hPa 0,2 l/m SW 0,00 h 27 W/m 15,0 km/h (3 Bft)
20.12.2011 15:00 0,3 C 95 % 1010,8 hPa 0,2 l/m W-SW 0,00 h 15 W/m 9,8 km/h (2 Bft)
20.12.2011 16:00 0,4 C 95 % 1011,6 hPa 0,2 l/m SW 0,00 h 6 W/m 8,3 km/h (2 Bft)
20.12.2011 17:00 0,4 C 96 % 1012,6 hPa 0,0 l/m SW 0,00 h 0 W/m 7,9 km/h (2 Bft)
20.12.2011 18:00 0,5 C 96 % 1013,4 hPa 0,8 l/m W-SW 0,00 h 0 W/m 7,1 km/h (2 Bft)
20.12.2011 19:00 0,6 C 97 % 1014,3 hPa 0,4 l/m W-SW 0,00 h 0 W/m 7,1 km/h (2 Bft)
20.12.2011 20:00 0,8 C 97 % 1014,9 hPa 0,0 l/m W-NW 0,00 h 0 W/m 11,0 km/h (2 Bft)
20.12.2011 21:00 0,9 C 97 % 1015,5 hPa 0,0 l/m W-NW 0,00 h 0 W/m 10,1 km/h (2 Bft)
20.12.2011 22:00 1,1 C 97 % 1016,5 hPa 0,0 l/m W 0,00 h 0 W/m 11,7 km/h (2 Bft)
20.12.2011 23:00 1,2 C 96 % 1017,0 hPa 0,0 l/m W 0,00 h 0 W/m 10,1 km/h (2 Bft)
21.12.2011 00:00 1,2 C 96 % 1017,5 hPa 0,0 l/m W 0,00 h 0 W/m 9,1 km/h (2 Bft)
21.12.2011 01:00 0,9 C 96 % 1017,9 hPa 0,0 l/m W 0,00 h 0 W/m 9,4 km/h (2 Bft)
21.12.2011 02:00 0,8 C 96 % 1018,5 hPa 0,0 l/m W-SW 0,00 h 0 W/m 7,4 km/h (2 Bft)
21.12.2011 03:00 0,8 C 96 % 1018,9 hPa 0,0 l/m W-SW 0,00 h 0 W/m 8,7 km/h (2 Bft)
21.12.2011 04:00 0,7 C 96 % 1018,9 hPa 0,0 l/m W-SW 0,00 h 0 W/m 14,1 km/h (3 Bft)
21.12.2011 05:00 0,7 C 95 % 1019,0 hPa 0,0 l/m W-SW 0,00 h 0 W/m 16,4 km/h (3 Bft)
21.12.2011 06:00 0,7 C 95 % 1018,9 hPa 0,0 l/m W-SW 0,00 h 0 W/m 15,4 km/h (3 Bft)
21.12.2011 07:00 0,6 C 95 % 1019,4 hPa 0,0 l/m W-SW 0,00 h 0 W/m 14,8 km/h (3 Bft)
21.12.2011 08:00 0,6 C 94 % 1019,5 hPa 0,0 l/m SW 0,00 h 12 W/m 17,2 km/h (3 Bft)
21.12.2011 09:00 0,8 C 93 % 1019,9 hPa 0,0 l/m W-SW 0,00 h 33 W/m 17,0 km/h (3 Bft)
21.12.2011 10:00 1,2 C 90 % 1020,1 hPa 0,0 l/m W-SW 0,00 h 70 W/m 19,7 km/h (3 Bft)
21.12.2011 11:00 1,3 C 91 % 1019,9 hPa 0,0 l/m W-SW 0,00 h 63 W/m 20,2 km/h (4 Bft)
21.12.2011 12:00 1,2 C 91 % 1019,3 hPa 0,0 l/m W-SW 0,00 h 69 W/m 17,6 km/h (3 Bft)
21.12.2011 13:00 0,9 C 93 % 1019,1 hPa 0,2 l/m W-SW 0,00 h 51 W/m 16,8 km/h (3 Bft)
21.12.2011 14:00 0,9 C 94 % 1018,9 hPa 0,2 l/m W-SW 0,00 h 40 W/m 13,7 km/h (3 Bft)
21.12.2011 15:00 0,8 C 94 % 1018,8 hPa 0,2 l/m W-SW 0,00 h 15 W/m 12,6 km/h (3 Bft)
21.12.2011 16:00 0,7 C 95 % 1019,1 hPa 0,2 l/m SW 0,00 h 5 W/m 9,4 km/h (2 Bft)
21.12.2011 17:00 0,6 C 95 % 1019,3 hPa 0,0 l/m W-SW 0,00 h 0 W/m 9,7 km/h (2 Bft)
21.12.2011 18:00 0,5 C 95 % 1019,3 hPa 0,0 l/m W-SW 0,00 h 0 W/m 4,7 km/h (1 Bft)
21.12.2011 19:00 0,5 C 96 % 1019,5 hPa 0,0 l/m SW 0,00 h 0 W/m 7,5 km/h (2 Bft)
21.12.2011 20:00 0,6 C 96 % 1020,0 hPa 0,0 l/m W 0,00 h 0 W/m 6,2 km/h (2 Bft)
21.12.2011 21:00 0,8 C 96 % 1020,4 hPa 0,0 l/m W-SW 0,00 h 0 W/m 6,4 km/h (2 Bft)
21.12.2011 22:00 0,8 C 96 % 1020,8 hPa 0,0 l/m SW 0,00 h 0 W/m 3,7 km/h (1 Bft)
21.12.2011 23:00 0,7 C 96 % 1021,4 hPa 0,0 l/m SW 0,00 h 0 W/m 5,1 km/h (1 Bft)
22.12.2011 00:00 0,7 C 97 % 1022,0 hPa 0,0 l/m SW 0,00 h 0 W/m 2,9 km/h (1 Bft)
22.12.2011 01:00 0,8 C 97 % 1022,2 hPa 0,0 l/m SW 0,00 h 0 W/m 4,8 km/h (1 Bft)
22.12.2011 02:00 0,8 C 97 % 1022,7 hPa 0,0 l/m SW 0,00 h 0 W/m 7,6 km/h (2 Bft)
22.12.2011 03:00 0,7 C 97 % 1023,1 hPa 0,0 l/m SW 0,00 h 0 W/m 10,2 km/h (2 Bft)
22.12.2011 04:00 0,7 C 98 % 1023,2 hPa 0,0 l/m SW 0,00 h 0 W/m 7,1 km/h (2 Bft)
22.12.2011 05:00 0,7 C 98 % 1023,3 hPa 0,0 l/m S-SW 0,00 h 0 W/m 8,3 km/h (2 Bft)
22.12.2011 06:00 0,7 C 98 % 1024,0 hPa 0,0 l/m S-SW 0,00 h 0 W/m 9,5 km/h (2 Bft)
22.12.2011 07:00 0,6 C 98 % 1023,9 hPa 0,2 l/m S-SW 0,00 h 0 W/m 11,4 km/h (2 Bft)
22.12.2011 08:00 0,7 C 98 % 1024,4 hPa 0,0 l/m S-SW 0,00 h 8 W/m 6,6 km/h (2 Bft)
22.12.2011 09:00 0,8 C 98 % 1024,5 hPa 0,6 l/m S-SW 0,00 h 20 W/m 8,8 km/h (2 Bft)
22.12.2011 10:00 0,9 C 99 % 1024,4 hPa 1,2 l/m S-SW 0,00 h 29 W/m 11,6 km/h (2 Bft)
22.12.2011 11:00 1,2 C 99 % 1024,5 hPa 1,4 l/m S-SW 0,00 h 37 W/m 10,9 km/h (2 Bft)
22.12.2011 12:00 1,6 C 99 % 1024,1 hPa 1,4 l/m S-SW 0,00 h 33 W/m 6,5 km/h (2 Bft)
22.12.2011 13:00 1,8 C 99 % 1023,6 hPa 0,6 l/m S 0,00 h 31 W/m 9,3 km/h (2 Bft)
22.12.2011 14:00 2,0 C 99 % 1023,2 hPa 0,2 l/m S-SW 0,00 h 27 W/m 9,0 km/h (2 Bft)
22.12.2011 15:00 2,2 C 99 % 1023,5 hPa 0,2 l/m S-SO 0,00 h 14 W/m 7,1 km/h (2 Bft)
22.12.2011 16:00 2,2 C 99 % 1023,8 hPa 0,0 l/m S 0,00 h 5 W/m 7,2 km/h (2 Bft)
22.12.2011 17:00 2,3 C 99 % 1024,2 hPa 0,0 l/m S-SO 0,00 h 0 W/m 5,5 km/h (1 Bft)
22.12.2011 18:00 2,6 C 99 % 1024,6 hPa 0,2 l/m SW 0,00 h 0 W/m 9,5 km/h (2 Bft)
22.12.2011 19:00 3,2 C 99 % 1025,2 hPa 0,0 l/m SW 0,00 h 0 W/m 9,8 km/h (2 Bft)
22.12.2011 20:00 3,3 C 99 % 1025,5 hPa 0,2 l/m SW 0,00 h 0 W/m 8,1 km/h (2 Bft)
22.12.2011 21:00 3,9 C 99 % 1025,9 hPa 0,4 l/m W-SW 0,00 h 0 W/m 11,8 km/h (2 Bft)
22.12.2011 22:00 4,1 C 99 % 1026,2 hPa 0,2 l/m SW 0,00 h 0 W/m 10,2 km/h (2 Bft)
22.12.2011 23:00 3,8 C 99 % 1026,6 hPa 0,0 l/m S-SW 0,00 h 0 W/m 9,0 km/h (2 Bft)
23.12.2011 00:00 3,7 C 99 % 1026,8 hPa 0,2 l/m S-SW 0,00 h 0 W/m 5,7 km/h (1 Bft)
23.12.2011 01:00 3,7 C 99 % 1026,8 hPa 0,0 l/m S-SW 0,00 h 0 W/m 7,9 km/h (2 Bft)
23.12.2011 02:00 3,9 C 99 % 1026,9 hPa 0,0 l/m S-SW 0,00 h 0 W/m 9,0 km/h (2 Bft)
23.12.2011 03:00 4,0 C 99 % 1026,7 hPa 0,0 l/m S-SW 0,00 h 0 W/m 8,7 km/h (2 Bft)
23.12.2011 04:00 4,2 C 99 % 1026,4 hPa 0,0 l/m SW 0,00 h 0 W/m 9,0 km/h (2 Bft)
23.12.2011 05:00 4,2 C 99 % 1026,5 hPa 0,0 l/m SW 0,00 h 0 W/m 7,9 km/h (2 Bft)
23.12.2011 06:00 4,1 C 99 % 1026,6 hPa 0,2 l/m SW 0,00 h 0 W/m 3,5 km/h (1 Bft)
23.12.2011 07:00 4,1 C 99 % 1026,7 hPa 0,0 l/m SW 0,00 h 0 W/m 4,4 km/h (1 Bft)
23.12.2011 08:00 4,1 C 99 % 1026,8 hPa 0,0 l/m SW 0,00 h 7 W/m 5,2 km/h (1 Bft)
23.12.2011 09:00 4,4 C 100 % 1026,5 hPa 0,0 l/m SW 0,00 h 16 W/m 6,9 km/h (2 Bft)
23.12.2011 10:00 4,8 C 100 % 1026,4 hPa 0,0 l/m SW 0,00 h 41 W/m 7,1 km/h (2 Bft)
23.12.2011 11:00 5,3 C 100 % 1025,7 hPa 0,0 l/m S-SW 0,00 h 48 W/m 8,7 km/h (2 Bft)
23.12.2011 12:00 5,6 C 100 % 1024,9 hPa 0,0 l/m SW 0,00 h 30 W/m 9,4 km/h (2 Bft)
23.12.2011 13:00 5,6 C 100 % 1023,8 hPa 0,0 l/m SW 0,00 h 27 W/m 7,6 km/h (2 Bft)
23.12.2011 14:00 5,7 C 100 % 1022,8 hPa 0,0 l/m SW 0,00 h 28 W/m 5,2 km/h (1 Bft)
23.12.2011 15:00 5,8 C 100 % 1021,9 hPa 0,0 l/m SW 0,00 h 16 W/m 4,3 km/h (1 Bft)
23.12.2011 16:00 5,6 C 100 % 1021,4 hPa 0,0 l/m SW 0,00 h 5 W/m 4,0 km/h (1 Bft)
23.12.2011 17:00 5,4 C 100 % 1020,6 hPa 0,0 l/m N 0,00 h 0 W/m 2,1 km/h (1 Bft)
23.12.2011 18:00 5,1 C 99 % 1019,9 hPa 0,0 l/m SW 0,00 h 0 W/m 4,0 km/h (1 Bft)
23.12.2011 19:00 4,9 C 100 % 1019,3 hPa 0,0 l/m SW 0,00 h 0 W/m 3,6 km/h (1 Bft)
23.12.2011 20:00 4,9 C 100 % 1018,8 hPa 0,0 l/m SW 0,00 h 0 W/m 5,7 km/h (1 Bft)
23.12.2011 21:00 4,8 C 99 % 1018,2 hPa 0,0 l/m SW 0,00 h 0 W/m 6,4 km/h (2 Bft)
23.12.2011 22:00 4,7 C 99 % 1017,9 hPa 0,0 l/m W-SW 0,00 h 0 W/m 11,4 km/h (2 Bft)
23.12.2011 23:00 4,4 C 98 % 1017,9 hPa 0,0 l/m W 0,00 h 0 W/m 19,8 km/h (4 Bft)
24.12.2011 00:00 4,4 C 95 % 1017,7 hPa 0,0 l/m W-SW 0,00 h 0 W/m 14,6 km/h (3 Bft)
24.12.2011 01:00 4,4 C 94 % 1017,1 hPa 0,0 l/m W-SW 0,00 h 0 W/m 18,6 km/h (3 Bft)
24.12.2011 02:00 4,7 C 93 % 1016,6 hPa 0,0 l/m SW 0,00 h 0 W/m 22,1 km/h (4 Bft)
24.12.2011 03:00 4,7 C 91 % 1016,0 hPa 0,0 l/m W-SW 0,00 h 0 W/m 22,8 km/h (4 Bft)
24.12.2011 04:00 4,8 C 92 % 1015,6 hPa 0,0 l/m W-SW 0,00 h 0 W/m 21,3 km/h (4 Bft)
24.12.2011 05:00 4,9 C 93 % 1015,8 hPa 0,0 l/m W-SW 0,00 h 0 W/m 22,2 km/h (4 Bft)
24.12.2011 06:00 4,9 C 93 % 1017,3 hPa 0,2 l/m W-SW 0,00 h 0 W/m 25,1 km/h (4 Bft)
24.12.2011 07:00 4,6 C 89 % 1019,8 hPa 0,0 l/m W-NW 0,00 h 0 W/m 29,1 km/h (5 Bft)
24.12.2011 08:00 4,0 C 88 % 1021,5 hPa 0,0 l/m W-NW 0,00 h 8 W/m 24,5 km/h (4 Bft)
24.12.2011 09:00 3,7 C 88 % 1023,0 hPa 0,0 l/m W-SW 0,00 h 34 W/m 23,7 km/h (4 Bft)
24.12.2011 10:00 3,4 C 90 % 1024,3 hPa 0,0 l/m W 0,00 h 53 W/m 23,3 km/h (4 Bft)
24.12.2011 11:00 3,1 C 90 % 1025,3 hPa 0,0 l/m W 0,00 h 80 W/m 20,9 km/h (4 Bft)
24.12.2011 12:00 3,4 C 86 % 1025,8 hPa 0,0 l/m W-NW 0,08 h 109 W/m 24,9 km/h (4 Bft)
24.12.2011 13:00 3,4 C 85 % 1026,3 hPa 0,0 l/m W 0,00 h 72 W/m 21,3 km/h (4 Bft)
24.12.2011 14:00 3,2 C 84 % 1027,0 hPa 0,0 l/m W-NW 0,00 h 70 W/m 18,4 km/h (3 Bft)
24.12.2011 15:00 3,1 C 82 % 1028,1 hPa 0,0 l/m W-NW 0,00 h 14 W/m 16,6 km/h (3 Bft)
24.12.2011 16:00 2,8 C 80 % 1029,2 hPa 0,0 l/m W-NW 0,00 h 9 W/m 11,1 km/h (2 Bft)
24.12.2011 17:00 2,6 C 82 % 1030,0 hPa 0,0 l/m W 0,00 h 0 W/m 10,1 km/h (2 Bft)
24.12.2011 18:00 2,3 C 84 % 1030,9 hPa 0,0 l/m W 0,00 h 0 W/m 10,2 km/h (2 Bft)
24.12.2011 19:00 2,0 C 85 % 1031,6 hPa 0,0 l/m W 0,00 h 0 W/m 11,6 km/h (2 Bft)
24.12.2011 20:00 1,8 C 86 % 1032,4 hPa 0,0 l/m W-SW 0,00 h 0 W/m 11,0 km/h (2 Bft)
24.12.2011 21:00 1,8 C 85 % 1033,0 hPa 0,0 l/m W 0,00 h 0 W/m 13,4 km/h (3 Bft)
24.12.2011 22:00 1,7 C 85 % 1033,2 hPa 0,0 l/m W-NW 0,00 h 0 W/m 9,5 km/h (2 Bft)
24.12.2011 23:00 1,3 C 87 % 1033,5 hPa 0,0 l/m W-SW 0,00 h 0 W/m 4,5 km/h (1 Bft)
25.12.2011 00:00 0,7 C 87 % 1033,4 hPa 0,0 l/m N 0,00 h 0 W/m 2,7 km/h (1 Bft)
25.12.2011 01:00 -0,2 C 89 % 1033,3 hPa 0,0 l/m N 0,00 h 0 W/m 1,5 km/h (1 Bft)
25.12.2011 02:00 -1,0 C 91 % 1033,5 hPa 0,0 l/m N 0,00 h 0 W/m 2,9 km/h (1 Bft)
25.12.2011 03:00 -1,5 C 93 % 1034,0 hPa 0,0 l/m N 0,00 h 0 W/m 1,7 km/h (1 Bft)
25.12.2011 04:00 -1,5 C 94 % 1034,0 hPa 0,0 l/m SW 0,00 h 0 W/m 4,3 km/h (1 Bft)
25.12.2011 05:00 -1,2 C 95 % 1034,3 hPa 0,0 l/m SW 0,00 h 0 W/m 3,7 km/h (1 Bft)
25.12.2011 06:00 -1,4 C 95 % 1034,6 hPa 0,0 l/m SW 0,00 h 0 W/m 3,3 km/h (1 Bft)
25.12.2011 07:00 -0,8 C 96 % 1034,9 hPa 0,0 l/m SW 0,00 h 0 W/m 8,3 km/h (2 Bft)
25.12.2011 08:00 -0,7 C 96 % 1035,9 hPa 0,0 l/m SO 0,00 h 7 W/m 4,3 km/h (1 Bft)
25.12.2011 09:00 -0,4 C 96 % 1036,3 hPa 0,0 l/m SW 0,00 h 46 W/m 9,8 km/h (2 Bft)
25.12.2011 10:00 0,5 C 94 % 1037,0 hPa 0,0 l/m S-SW 1,00 h 173 W/m 10,9 km/h (2 Bft)
25.12.2011 11:00 1,7 C 90 % 1037,3 hPa 0,0 l/m SW 1,00 h 267 W/m 12,6 km/h (3 Bft)
25.12.2011 12:00 2,7 C 84 % 1036,9 hPa 0,0 l/m W-SW 0,33 h 178 W/m 16,4 km/h (3 Bft)
25.12.2011 13:00 2,6 C 83 % 1036,2 hPa 0,0 l/m SW 0,00 h 102 W/m 19,6 km/h (3 Bft)
25.12.2011 14:00 2,9 C 81 % 1036,0 hPa 0,0 l/m SW 0,00 h 78 W/m 14,4 km/h (3 Bft)
25.12.2011 15:00 2,8 C 82 % 1036,2 hPa 0,0 l/m SW 0,00 h 26 W/m 14,4 km/h (3 Bft)
25.12.2011 16:00 2,5 C 83 % 1036,3 hPa 0,0 l/m SW 0,08 h 8 W/m 9,7 km/h (2 Bft)
25.12.2011 17:00 1,8 C 86 % 1037,1 hPa 0,0 l/m S-SW 0,00 h 0 W/m 5,8 km/h (1 Bft)
25.12.2011 18:00 1,7 C 87 % 1037,9 hPa 0,0 l/m SW 0,00 h 0 W/m 2,4 km/h (1 Bft)
25.12.2011 19:00 1,8 C 87 % 1038,3 hPa 0,0 l/m SW 0,00 h 0 W/m 3,2 km/h (1 Bft)
25.12.2011 20:00 1,8 C 88 % 1038,3 hPa 0,0 l/m SW 0,00 h 0 W/m 6,7 km/h (2 Bft)
25.12.2011 21:00 1,8 C 87 % 1038,4 hPa 0,0 l/m SW 0,00 h 0 W/m 5,4 km/h (1 Bft)
25.12.2011 22:00 1,7 C 87 % 1038,3 hPa 0,0 l/m S-SW 0,00 h 0 W/m 6,4 km/h (2 Bft)
25.12.2011 23:00 1,5 C 86 % 1038,8 hPa 0,0 l/m S-SW 0,00 h 0 W/m 5,1 km/h (1 Bft)
Min-Datum _ 19.12.11 24.12.11 20.12.11 - - - - 19.12.11
_ Min-Zeit 08:30 16:05 13:25 - - - - 01:20
Minimum _ -5,8 C 80 % 1010,0 hPa - - - - 0,0 km/h (0 Bft)
Max-Datum _ 23.12.11 22.12.11 25.12.11 22.12.11 - 19.12.11 25.12.11 24.12.11
_ Max-Zeit 15:00 21:25 23:40 11:00 - 13:30 12:10 07:15
Maximum _ 5,8 C 100 % 1039,1 hPa 1,4 l/m - 0,08 h 403 W/m 37,0 km/h
W (5 Bft)
Durchschnitt _ 1,1 C 94 % 1023,0 hPa #13,2 l/m SW #2:50 h 44 W/m 9,9 km/h (2 Bft)